User: anonymous   Login
Location: Deer Lodge Site
(39.6809°N, 119.9392°W)
Time: 00:54:56
(UTC-08:00)
Language:

CZ-4C R/B - Orbit

View from above orbital plane
View from above orbital plane
View from above satellite
View from above satellite

Ground track
Ground track

The orbit data is extracted from the following two-line orbital elements,

1 36416U 10009D   17057.80178772 -.00000093  00000-0  25974-5 0  9995
2 36416  63.4393 200.1028 0376335 356.5985   3.2503 13.69512043349251
Epoch (UTC): 26 February 2017 19:14:34
Eccentricity: 0.0376335
inclination: 63.4393°
perigee height: 723 km
apogee height: 1279 km
right ascension of ascending node: 200.1028°
argument of perigee: 356.5985°
revolutions per day: 13.69512043
mean anomaly at epoch: 3.2503°
orbit number at epoch: 34925

The dashed part of the orbit path shows where the satellite is in the earth's shadow,  

DLR